Regional Weather Roundup
Issued by NWS

Home | Current Version | Previous Version | Text Only | Print | Product List | Glossary Off
Versions: 1 2 3 4 5 6 7 8 9 10 11 12 13 14 15 16 17 18 19 20 21 22 23 24 25 26 27 28 29 30 31 32 33 34 35 36 37 38 39 40 41 42 43 44 45 46 47 48 49 50

000
ASUS45 KCYS 301010
RWRWY

WYOMING REGIONAL WEATHER ROUNDUP
NATIONAL WEATHER SERVICE CHEYENNE WY
400 AM MDT SUN AUG 30 2015

NOTE:  "FAIR" INDICATES FEW OR NO CLOUDS BELOW 12,000 FEET
WITH NO SIGNIFICANT WEATHER AND/OR OBSTRUCTIONS TO VISIBILITY.

WYZ001-301100-
YELLOWSTONE NATIONAL PARK

CITY           SKY/WX    TMP DP  RH WIND       PRES   REMARKS
LK YELLOWSTONE   N/A     48  47  96 CALM      30.16F
W YELLOWSTONE  NOT AVBL

$$
WYZ002>013-054>058-071-098>099-301100-
NORTHERN WYOMING

CITY           SKY/WX    TMP DP  RH WIND       PRES   REMARKS
JACKSON        FAIR      57  52  82 SE6       30.08S
CODY           FAIR      70  45  40 SW8G21    29.94F
GREYBULL       FAIR      75  45  34 NW13      29.87R
WORLAND        FAIR      63  45  51 N3        29.88R
SHERIDAN       FAIR      62  44  51 CALM      29.80F
BUFFALO        FAIR      78  35  21 W12       29.90F
GILLETTE       FAIR      71  34  25 S17       29.86F
HULETT         FAIR      79  36  21 S12G17    29.89S
NEWCASTLE      FAIR      73  36  25 SE13      29.94F

$$
WYZ014>020-022>026-101>103-301100-
CENTRAL WYOMING

CITY           SKY/WX    TMP DP  RH WIND       PRES   REMARKS
BIG PINEY      FAIR      53  41  63 E7        30.12F
PINEDALE       FAIR      55  41  58 CALM      30.14F
DUBOIS         FAIR      55  43  62 NW7       30.11F
LANDER         FAIR      73  35  25 W12       29.97R
RIVERTON       FAIR      64  45  49 NW13      29.99R
CASPER         FAIR      66  33  29 SW12      30.00S
DOUGLAS        FAIR      58  38  47 S6        30.00S

$$
WYZ021-027>030-104>119-301100-
SOUTHERN WYOMING

CITY           SKY/WX    TMP DP  RH WIND       PRES   REMARKS
EVANSTON       FAIR      68  39  34 SW17      30.14R
KEMMERER       FAIR      63  34  34 S10       30.14S
FORT BRIDGER   SUNNY     64  36  34 S13       30.16S
ROCK SPRINGS   MOCLDY    67  32  27 SW14      30.12S
DIXON          FAIR      49  35  58 CALM      30.20S
RAWLINS        FAIR      65  29  25 SW10      30.15F
SARATOGA       FAIR      54  36  50 SE8       30.20S
LARAMIE        FAIR      49  36  61 S8        30.22S
CHEYENNE       FAIR      54  45  71 W7        30.13F
TORRINGTON     FAIR      67  40  37 SE9       29.98F
PINE BLUFFS    FAIR      54  37  54 NW3       30.09R

$$


USA.gov is the U.S. government's official web portal to all federal, state and local government web resources and services.